Regional Weather Roundup
Issued by NWS Northern Indiana

Home | Current Version | Previous Version | Graphics & Text | Print | Product List | Glossary On
Versions: 1 2 3 4 5 6 7 8 9 10 11 12 13 14 15 16 17 18 19 20 21 22 23 24 25 26 27 28 29 30 31 32 33 34 35 36 37 38 39 40 41 42 43 44 45 46 47 48 49 50
000
ASUS43 KIWX 050400
RWRIWX

KIWX WEATHER ROUNDUP
NATIONAL WEATHER SERVICE NORTHERN INDIANA
1200 AM EDT TUE MAY 05 2015

NOTE: "FAIR" INDICATES FEW OR NO CLOUDS BELOW 12,000 FEET WITH NO
SIGNIFICANT WEATHER AND/OR OBSTRUCTIONS TO VISIBILITY.

* THESE STATIONS ARE NOT UNDER NWS QUALITY CONTROL. THEY ALSO MAY NOT
  REPORT WEATHER SUCH AS PRECIPITATION OR FOG.

INZ001>027-050500-
NORTHERN INDIANA

CITY           SKY/WX    TMP DP  RH WIND       PRES   REMARKS
SOUTH BEND     CLOUDY    63  55  75 E3        30.18F
GOSHEN         PTCLDY    60  57  89 NE3       30.18F
ANGOLA*        PTCLDY    59  55  88 CALM      30.20S
FORT WAYNE     CLOUDY    61  60  97 CALM      30.19F
PERU/GRISSOM   CLOUDY    63  61  96 SE5       30.16S

$$
INZ028>050-050500-
CENTRAL INDIANA

CITY           SKY/WX    TMP DP  RH WIND       PRES   REMARKS
LAFAYETTE      CLOUDY    60  60 100 E5        30.15S FOG
KOKOMO*        CLOUDY    63  61  94 S5        30.17S
MUNCIE*        LGT RAIN  63  59  87 SE7       30.18F FOG
INDIANAPOLIS   MOCLDY    64  57  78 SE8       30.16F

$$
MIZ043>046-050>051-056>058-064>065-071>073-077>080-050500-
SOUTHWEST LOWER MICHIGAN

CITY           SKY/WX    TMP DP  RH WIND       PRES   REMARKS
BATTLE CREEK   CLEAR     60  54  80 S3        30.20S
BENTON HARBOR  PTCLDY    51  49  92 CALM      30.18S
COLDWATER*     PTCLDY    58  53  85 CALM      30.19S
HILLSDALE*     MOCLDY    58  56  92 CALM      30.20S
HOLLAND        PTCLDY    50  44  80 CALM      30.20S
GRAND RAPIDS   PTCLDY    59  39  47 NE9       30.20S
KALAMAZOO      CLEAR     61  54  77 N3        30.19F
STURGIS*       PTCLDY    57  54  88 CALM      30.18F
THREE RIVERS*  FAIR      57  52  84 CALM      30.19S

$$
OHZ001>008-015>018-024>025-050500-
NORTHWEST OHIO

CITY           SKY/WX    TMP DP  RH WIND       PRES   REMARKS
DEFIANCE       CLOUDY    63  59  87 CALM      30.19S
FINDLAY        CLOUDY    61  57  87 SW3       30.19S FOG
TOLEDO EXPRESS CLOUDY    63  60  90 SW6       30.18F
TOLEDO METCALF CLOUDY    62  57  83 SW6       30.19S
LIMA           CLOUDY    61  59  93 S7        30.20S FOG

$$
AND FOR LAKE MICHIGAN COASTAL AND OPEN LAKE BUOY OBSERVATIONS

STATION/POSITION TEMP    WIND        PRES    VSBY  WAVE
                 AIR SEA DIR/SP/G                  HT/PER
                 (F)     (DEG/KT/KT) (MB)    (MI)  (FT/S)
CALUMET HARBOR    50     340/  5/  6   N/A
MICHIGAN CITY     53      30/  9/ 10   N/A
BURNS HARBOR      53      70/  8/  9 1022.0F
SAINT JOSEPH      54      CALM  /  5 1023.0S
4 MI NW BRIDGMAN  52 49   40/  4/  6   N/A           0
MICHIGAN CITY     51 50   70/  6/  6   N/A           1

$$
&&



USA.gov is the U.S. government's official web portal to all federal, state and local government web resources and services.